This is the latest recevied weather packets stored in our database for station/object EA3IK-1. If no packets are shown the sender has not sent any weather packets the latest 10 day(s).
| Time | Temp. | Humidity | Pressure | Rain* | Wind** | Luminosity | Snow |
|---|---|---|---|---|---|---|---|
| 1777699616 | 16.11° C | 52% | 1022.5 hPa | 0 mm | - | - | - |
| 1777698715 | 16.11° C | 53% | 1022.5 hPa | 0 mm | - | - | - |
| 1777697814 | 16.11° C | 53% | 1022.4 hPa | 0 mm | - | - | - |
| 1777696913 | 16.11° C | 53% | 1022.4 hPa | 0 mm | - | - | - |
| 1777696013 | 16.11° C | 53% | 1022.4 hPa | 0 mm | - | - | - |
| 1777695112 | 16.11° C | 53% | 1022.4 hPa | 0 mm | - | - | - |
| 1777694211 | 16.11° C | 52% | 1022.3 hPa | 0 mm | - | - | - |
| 1777693310 | 16.11° C | 51% | 1022.4 hPa | 0 mm | - | - | - |
| 1777692409 | 16.67° C | 50% | 1022.3 hPa | 0 mm | - | - | - |
| 1777691508 | 16.67° C | 50% | 1022.4 hPa | 0 mm | - | - | - |
| 1777690618 | 16.67° C | 51% | 1022.4 hPa | 0 mm | - | - | - |
| 1777689707 | 16.67° C | 50% | 1022.5 hPa | 0 mm | - | - | - |
| 1777688806 | 16.67° C | 51% | 1022.5 hPa | 0 mm | - | - | - |
| 1777687905 | 16.67° C | 52% | 1022.6 hPa | 0 mm | - | - | - |
| 1777687004 | 16.67° C | 55% | 1022.6 hPa | 0 mm | - | - | - |
| 1777686103 | 16.67° C | 56% | 1022.7 hPa | 0 mm | - | - | - |
| 1777685202 | 16.67° C | 56% | 1022.7 hPa | 0 mm | - | - | - |
| 1777684301 | 16.67° C | 56% | 1022.9 hPa | 0 mm | - | - | - |
| 1777683401 | 16.67° C | 57% | 1023 hPa | 0 mm | - | - | - |
| 1777682500 | 16.67° C | 55% | 1023.2 hPa | 0 mm | - | - | - |
| 1777681599 | 16.67° C | 53% | 1023.5 hPa | 0 mm | - | - | - |
| 1777680698 | 16.67° C | 50% | 1023.6 hPa | 0 mm | - | - | - |
| 1777679797 | 16.11° C | 48% | 1023.8 hPa | 0 mm | - | - | - |
| 1777678896 | 16.11° C | 48% | 1023.9 hPa | 0 mm | - | - | - |
| 1777677996 | 16.67° C | 48% | 1023.9 hPa | 0 mm | - | - | - |
* Rain latest hour (hover to see other rain measurements)
** Current wind speed in m/s (hover to see current wind gust speed)